TimeEEST,TemperatureF,Dew PointF,Humidity,Sea Level PressureIn,VisibilityMPH,Wind Direction,Wind SpeedMPH,Gust SpeedMPH,PrecipitationIn,Events,Conditions,WindDirDegrees,DateUTC
4:50 AM,77.0,55.4,47,29.68,-9999.0,NNE,13.8,-,N/A,,Clear,20,2013-07-22 01:50:00
5:20 AM,77.0,55.4,47,29.68,-9999.0,NNE,13.8,-,N/A,,Clear,20,2013-07-22 02:20:00
5:50 AM,77.0,55.4,47,29.68,-9999.0,NNE,11.5,-,N/A,,Clear,20,2013-07-22 02:50:00
6:20 AM,77.0,55.4,47,29.68,-9999.0,NNE,11.5,-,N/A,,Clear,20,2013-07-22 03:20:00
6:50 AM,77.0,55.4,47,29.68,-9999.0,NNE,15.0,-,N/A,,Clear,20,2013-07-22 03:50:00
7:50 AM,78.8,55.4,44,29.68,-9999.0,NNE,15.0,-,N/A,,Clear,20,2013-07-22 04:50:00
8:20 AM,78.8,55.4,44,29.68,-9999.0,NNE,13.8,-,N/A,,Clear,20,2013-07-22 05:20:00
8:50 AM,78.8,60.8,54,29.71,-9999.0,North,16.1,-,N/A,,Clear,10,2013-07-22 05:50:00
9:00 AM,79,61,43,29.74,6,North,16.1,,,,,10,2013-07-22 06:00:00
9:20 AM,78.8,60.8,54,29.74,-9999.0,North,16.1,-,N/A,,Clear,10,2013-07-22 06:20:00
9:50 AM,80.6,60.8,51,29.74,-9999.0,North,17.3,-,N/A,,Clear,10,2013-07-22 06:50:00
10:20 AM,80.6,60.8,51,29.74,-9999.0,NNE,13.8,-,N/A,,Clear,20,2013-07-22 07:20:00
10:50 AM,80.6,62.6,54,29.74,-9999.0,North,15.0,-,N/A,,Clear,10,2013-07-22 07:50:00
11:20 AM,82.4,62.6,51,29.74,-9999.0,North,15.0,-,N/A,,Clear,10,2013-07-22 08:20:00
11:50 AM,82.4,62.6,51,29.74,-9999.0,NNE,17.3,-,N/A,,Clear,20,2013-07-22 08:50:00
12:20 PM,84.2,62.6,48,29.74,-9999.0,NNE,17.3,-,N/A,,Clear,20,2013-07-22 09:20:00
12:50 PM,84.2,60.8,45,29.74,-9999.0,North,16.1,-,N/A,,Clear,10,2013-07-22 09:50:00
1:20 PM,84.2,60.8,45,29.74,-9999.0,North,17.3,28.8,N/A,,Clear,360,2013-07-22 10:20:00
1:50 PM,86.0,64.4,48,29.74,-9999.0,North,17.3,28.8,N/A,,Clear,360,2013-07-22 10:50:00
2:20 PM,87.8,64.4,46,29.74,-9999.0,North,17.3,28.8,N/A,,Clear,360,2013-07-22 11:20:00
2:50 PM,89.6,66.2,46,29.68,-9999.0,North,16.1,28.8,N/A,,Clear,360,2013-07-22 11:50:00
3:00 PM,90,66,36,29.70,6,North,16.1,,,,,0,2013-07-22 12:00:00
3:20 PM,89.6,66.2,46,29.68,-9999.0,North,17.3,32.2,N/A,,Clear,360,2013-07-22 12:20:00
3:50 PM,89.6,66.2,46,29.68,-9999.0,North,18.4,32.2,N/A,,Clear,360,2013-07-22 12:50:00
4:20 PM,89.6,66.2,46,29.68,-9999.0,North,19.6,32.2,N/A,,Clear,360,2013-07-22 13:20:00
4:50 PM,89.6,66.2,46,29.68,-9999.0,North,19.6,33.4,N/A,,Clear,360,2013-07-22 13:50:00
5:20 PM,89.6,66.2,46,29.68,-9999.0,North,19.6,33.4,N/A,,Clear,360,2013-07-22 14:20:00
5:50 PM,89.6,66.2,46,29.68,-9999.0,NNW,18.4,32.2,N/A,,Clear,340,2013-07-22 14:50:00
6:20 PM,89.6,66.2,46,29.68,-9999.0,NNW,18.4,32.2,N/A,,Clear,340,2013-07-22 15:20:00
6:50 PM,89.6,64.4,43,29.68,-9999.0,NNW,19.6,31.1,N/A,,Clear,340,2013-07-22 15:50:00
7:20 PM,89.6,64.4,43,29.68,-9999.0,NNW,19.6,31.1,N/A,,Clear,340,2013-07-22 16:20:00
7:50 PM,87.8,62.6,43,29.68,-9999.0,North,18.4,29.9,N/A,,Clear,350,2013-07-22 16:50:00
8:20 PM,86.0,62.6,45,29.68,-9999.0,North,18.4,29.9,N/A,,Clear,350,2013-07-22 17:20:00
8:50 PM,84.2,60.8,45,29.65,-9999.0,North,17.3,29.9,N/A,,Clear,350,2013-07-22 17:50:00
9:00 PM,85,61,34,29.68,6,North,17.3,,,,,350,2013-07-22 18:00:00